SWA3811 KPHX-KLGB

Flight info

Callsign SWA3811
Flight time 1h 6m
Altitude 40000
Route KEENS3 HRRBR EMLLD ROOBY3
Aircraft B737/M-SADE2E3GIJ4RWZ/LB1D1

Departure

Time 2026-05-04 21:12
Airport Phoenix Sky Harbor International Airport (KPHX)

Arrival

Time 2026-05-04 22:18
Airport Long Beach International Airport (KLGB)
Time Latitude Longitude Altitude Speed Heading
2026-05-04 20:56 33.43354 -111.99481 1123 ft 0 kts 68°
2026-05-04 21:07 33.43352 -111.99487 1113 ft 4 kts 71°
2026-05-04 21:07 33.43350 -111.99514 1118 ft 4 kts 120°
2026-05-04 21:07 33.43365 -111.99529 1123 ft 2 kts 179°
2026-05-04 21:07 33.43366 -111.99529 1123 ft 0 kts 180°
2026-05-04 21:10 33.43363 -111.99529 1116 ft 2 kts 180°
2026-05-04 21:10 33.43329 -111.99529 1123 ft 8 kts 180°
2026-05-04 21:10 33.43259 -111.99548 1116 ft 12 kts 189°
2026-05-04 21:10 33.43213 -111.99486 1117 ft 11 kts 91°
2026-05-04 21:11 33.43213 -111.99395 1120 ft 10 kts 91°
2026-05-04 21:11 33.43181 -111.99346 1122 ft 8 kts 162°
2026-05-04 21:11 33.43130 -111.99352 1117 ft 8 kts 210°
2026-05-04 21:11 33.43104 -111.99430 1120 ft 16 kts 269°
2026-05-04 21:12 33.43104 -111.99949 1123 ft 109 kts 270°
2026-05-04 21:12 33.43108 -112.01170 1220 ft 176 kts 270°
2026-05-04 21:12 33.43082 -112.02655 2253 ft 176 kts 268°
2026-05-04 21:12 33.43038 -112.04095 3350 ft 183 kts 267°
2026-05-04 21:13 33.42977 -112.05759 3838 ft 219 kts 266°
2026-05-04 21:13 33.42847 -112.07739 4230 ft 255 kts 256°
2026-05-04 21:13 33.42208 -112.09786 5202 ft 264 kts 245°
2026-05-04 21:13 33.41499 -112.11779 6363 ft 266 kts 247°
2026-05-04 21:14 33.40833 -112.13847 7825 ft 267 kts 248°
2026-05-04 21:14 33.40173 -112.15990 9207 ft 274 kts 248°
2026-05-04 21:14 33.39520 -112.18143 10590 ft 279 kts 250°
2026-05-04 21:14 33.39196 -112.20533 11353 ft 310 kts 268°
2026-05-04 21:15 33.39488 -112.23165 12313 ft 325 kts 276°
2026-05-04 21:15 33.39887 -112.25805 13522 ft 328 kts 276°
2026-05-04 21:15 33.40307 -112.28490 14820 ft 329 kts 277°
2026-05-04 21:15 33.40727 -112.31187 16071 ft 331 kts 277°
2026-05-04 21:16 33.41144 -112.33908 17244 ft 334 kts 277°
2026-05-04 21:16 33.41560 -112.36655 18362 ft 337 kts 277°
2026-05-04 21:16 33.41975 -112.39426 19416 ft 340 kts 276°
2026-05-04 21:16 33.42392 -112.42239 20387 ft 346 kts 276°
2026-05-04 21:17 33.42813 -112.45095 21314 ft 351 kts 275°
2026-05-04 21:17 33.43238 -112.47990 22182 ft 356 kts 275°
2026-05-04 21:17 33.43671 -112.50933 22976 ft 361 kts 274°
2026-05-04 21:17 33.44108 -112.53911 23756 ft 366 kts 274°
2026-05-04 21:18 33.44551 -112.56932 24507 ft 371 kts 274°
2026-05-04 21:18 33.44990 -112.59989 25254 ft 373 kts 272°
2026-05-04 21:18 33.45192 -112.63062 26040 ft 369 kts 266°
2026-05-04 21:18 33.45206 -112.66137 26821 ft 369 kts 264°
2026-05-04 21:19 33.45184 -112.69211 27541 ft 371 kts 265°
2026-05-04 21:19 33.45187 -112.72307 28217 ft 373 kts 265°
2026-05-04 21:19 33.45214 -112.75420 28892 ft 374 kts 265°
2026-05-04 21:19 33.45255 -112.78544 29528 ft 376 kts 266°
2026-05-04 21:20 33.45510 -112.81664 30332 ft 379 kts 274°
2026-05-04 21:20 33.46065 -112.84724 31269 ft 373 kts 275°
2026-05-04 21:20 33.46653 -112.87723 32216 ft 366 kts 275°
2026-05-04 21:20 33.47225 -112.90620 33118 ft 359 kts 275°
2026-05-04 21:21 33.47786 -112.93494 34012 ft 351 kts 274°
2026-05-04 21:21 33.48329 -112.96317 34825 ft 344 kts 274°
2026-05-04 21:21 33.48855 -112.99098 35437 ft 342 kts 273°
2026-05-04 21:21 33.49374 -113.01886 35890 ft 344 kts 273°
2026-05-04 21:22 33.49892 -113.04681 36417 ft 343 kts 273°
2026-05-04 21:22 33.50407 -113.07456 36975 ft 340 kts 273°
2026-05-04 21:22 33.50919 -113.10218 37459 ft 339 kts 272°
2026-05-04 21:22 33.51429 -113.12978 37932 ft 338 kts 272°
2026-05-04 21:23 33.51937 -113.15721 38432 ft 336 kts 272°
2026-05-04 21:23 33.52442 -113.18450 38919 ft 334 kts 272°
2026-05-04 21:23 33.52942 -113.21162 39362 ft 333 kts 272°
2026-05-04 21:23 33.53441 -113.23875 39699 ft 335 kts 273°
2026-05-04 21:24 33.54034 -113.26596 39974 ft 341 kts 276°
2026-05-04 21:24 33.54713 -113.29341 39961 ft 345 kts 277°
2026-05-04 21:24 33.56126 -113.34811 39983 ft 339 kts 276°
2026-05-04 21:25 33.57501 -113.40190 39986 ft 337 kts 276°
2026-05-04 21:25 33.58854 -113.45591 39981 ft 339 kts 276°
2026-05-04 21:26 33.60205 -113.51023 39974 ft 340 kts 276°
2026-05-04 21:26 33.61558 -113.56473 39964 ft 341 kts 276°
2026-05-04 21:27 33.62908 -113.61924 39962 ft 340 kts 276°
2026-05-04 21:27 33.64253 -113.67354 39959 ft 339 kts 275°
2026-05-04 21:28 33.65587 -113.72772 39962 ft 338 kts 275°
2026-05-04 21:28 33.66914 -113.78175 39959 ft 337 kts 275°
2026-05-04 21:29 33.68237 -113.83568 39954 ft 336 kts 275°
2026-05-04 21:29 33.69556 -113.88954 39955 ft 336 kts 275°
2026-05-04 21:30 33.70650 -113.93430 39956 ft 337 kts 275°
2026-05-04 21:30 33.72179 -113.99700 39953 ft 336 kts 275°
2026-05-04 21:31 33.73934 -114.06917 39944 ft 337 kts 275°
2026-05-04 21:32 33.75246 -114.12322 39940 ft 337 kts 275°
2026-05-04 21:32 33.76248 -114.17742 39939 ft 328 kts 269°
2026-05-04 21:33 33.76857 -114.23142 39936 ft 328 kts 268°
2026-05-04 21:33 33.77467 -114.28628 39937 ft 329 kts 268°
2026-05-04 21:34 33.78084 -114.34051 39934 ft 330 kts 268°
2026-05-04 21:34 33.78714 -114.39521 39933 ft 331 kts 268°
2026-05-04 21:35 33.79346 -114.44999 39934 ft 331 kts 268°
2026-05-04 21:35 33.79978 -114.50484 39936 ft 331 kts 268°
2026-05-04 21:36 33.80608 -114.55964 39934 ft 331 kts 268°
2026-05-04 21:36 33.81234 -114.61435 39934 ft 330 kts 268°
2026-05-04 21:37 33.81856 -114.66893 39943 ft 329 kts 268°
2026-05-04 21:37 33.82473 -114.72347 39944 ft 330 kts 268°
2026-05-04 21:38 33.83090 -114.77818 39934 ft 331 kts 268°
2026-05-04 21:38 33.83706 -114.83296 39937 ft 330 kts 268°
2026-05-04 21:39 33.84314 -114.88729 39932 ft 330 kts 268°
2026-05-04 21:39 33.84926 -114.94200 39931 ft 330 kts 268°
2026-05-04 21:40 33.85536 -114.99670 39935 ft 330 kts 268°
2026-05-04 21:40 33.86144 -115.05129 39932 ft 329 kts 267°
2026-05-04 21:41 33.86747 -115.10587 39939 ft 329 kts 267°
2026-05-04 21:41 33.87348 -115.16046 39937 ft 330 kts 267°
2026-05-04 21:42 33.87948 -115.21515 39935 ft 329 kts 267°
2026-05-04 21:42 33.88544 -115.26970 39939 ft 328 kts 267°
2026-05-04 21:43 33.89137 -115.32421 39946 ft 328 kts 267°
2026-05-04 21:43 33.89726 -115.37865 39945 ft 328 kts 266°
2026-05-04 21:44 33.90313 -115.43317 39943 ft 329 kts 266°
2026-05-04 21:44 33.90899 -115.48765 39940 ft 328 kts 266°
2026-05-04 21:45 33.91479 -115.54189 39943 ft 326 kts 266°
2026-05-04 21:45 33.92055 -115.59586 39956 ft 325 kts 266°
2026-05-04 21:46 33.92626 -115.64982 39961 ft 325 kts 266°
2026-05-04 21:46 33.93047 -115.70374 39953 ft 323 kts 264°
2026-05-04 21:47 33.93404 -115.75733 39956 ft 324 kts 264°
2026-05-04 21:47 33.93775 -115.81165 39546 ft 326 kts 264°
2026-05-04 21:47 33.93965 -115.83881 39036 ft 323 kts 264°
2026-05-04 21:48 33.94156 -115.86563 38472 ft 320 kts 264°
2026-05-04 21:48 33.94344 -115.89227 37856 ft 319 kts 264°
2026-05-04 21:48 33.94530 -115.91880 37236 ft 317 kts 264°
2026-05-04 21:48 33.94713 -115.94514 36627 ft 315 kts 264°
2026-05-04 21:49 33.94894 -115.97141 35983 ft 314 kts 263°
2026-05-04 21:49 33.95073 -115.99753 35289 ft 314 kts 264°
2026-05-04 21:49 33.95257 -116.02361 34767 ft 310 kts 263°
2026-05-04 21:49 33.95444 -116.04947 34224 ft 310 kts 263°
2026-05-04 21:50 33.95613 -116.07556 33704 ft 316 kts 263°
2026-05-04 21:50 33.95789 -116.10201 33175 ft 317 kts 264°
2026-05-04 21:50 33.95970 -116.12837 32637 ft 314 kts 264°
2026-05-04 21:50 33.96150 -116.15449 32123 ft 313 kts 263°
2026-05-04 21:51 33.96329 -116.18058 31596 ft 313 kts 263°
2026-05-04 21:51 33.96434 -116.20700 31086 ft 318 kts 257°
2026-05-04 21:51 33.96161 -116.23342 30553 ft 318 kts 253°
2026-05-04 21:51 33.95811 -116.25958 30017 ft 316 kts 252°
2026-05-04 21:52 33.95467 -116.28566 29447 ft 315 kts 252°
2026-05-04 21:52 33.95134 -116.31170 28875 ft 314 kts 253°
2026-05-04 21:52 33.94811 -116.33758 28302 ft 311 kts 253°
2026-05-04 21:52 33.94494 -116.36327 27735 ft 309 kts 253°
2026-05-04 21:53 33.94179 -116.38885 27175 ft 308 kts 254°
2026-05-04 21:53 33.93866 -116.41421 26617 ft 306 kts 254°
2026-05-04 21:53 33.93555 -116.43943 26051 ft 303 kts 255°
2026-05-04 21:53 33.93245 -116.46447 25503 ft 301 kts 255°
2026-05-04 21:54 33.92938 -116.48929 24958 ft 298 kts 255°
2026-05-04 21:54 33.92633 -116.51391 24409 ft 296 kts 255°
2026-05-04 21:54 33.92329 -116.53824 23873 ft 293 kts 255°
2026-05-04 21:54 33.92024 -116.56231 23341 ft 290 kts 255°
2026-05-04 21:55 33.91716 -116.58619 22803 ft 287 kts 255°
2026-05-04 21:55 33.91410 -116.60988 22269 ft 285 kts 256°
2026-05-04 21:55 33.91105 -116.63344 21741 ft 286 kts 256°
2026-05-04 21:55 33.90798 -116.65712 21216 ft 288 kts 256°
2026-05-04 21:56 33.90490 -116.68095 20676 ft 287 kts 256°
2026-05-04 21:56 33.90184 -116.70460 20114 ft 285 kts 256°
2026-05-04 21:56 33.89880 -116.72800 19602 ft 282 kts 256°
2026-05-04 21:56 33.89577 -116.75131 19090 ft 282 kts 257°
2026-05-04 21:57 33.89294 -116.77472 18548 ft 284 kts 258°
2026-05-04 21:57 33.89037 -116.79836 18064 ft 286 kts 259°
2026-05-04 21:57 33.88781 -116.82219 17523 ft 287 kts 259°
2026-05-04 21:57 33.88527 -116.84589 16953 ft 284 kts 259°
2026-05-04 21:58 33.88280 -116.86900 16467 ft 282 kts 259°
2026-05-04 21:58 33.88024 -116.89262 15920 ft 281 kts 259°
2026-05-04 21:58 33.87775 -116.91555 15429 ft 280 kts 259°
2026-05-04 21:58 33.87520 -116.93870 14906 ft 279 kts 259°
2026-05-04 21:59 33.87264 -116.96184 14391 ft 279 kts 259°
2026-05-04 21:59 33.87010 -116.98488 13955 ft 275 kts 259°
2026-05-04 21:59 33.86769 -117.00742 13645 ft 269 kts 259°
2026-05-04 21:59 33.86532 -117.02976 13361 ft 270 kts 260°
2026-05-04 22:00 33.86294 -117.05230 13064 ft 273 kts 260°
2026-05-04 22:00 33.86052 -117.07503 12752 ft 275 kts 260°
2026-05-04 22:00 33.85808 -117.09793 12471 ft 276 kts 260°
2026-05-04 22:00 33.85564 -117.12081 12172 ft 275 kts 260°
2026-05-04 22:01 33.85320 -117.14368 11872 ft 276 kts 260°
2026-05-04 22:01 33.85074 -117.16656 11581 ft 276 kts 260°
2026-05-04 22:01 33.84820 -117.18951 11274 ft 276 kts 259°
2026-05-04 22:01 33.84562 -117.21243 10972 ft 276 kts 261°
2026-05-04 22:02 33.84329 -117.23535 10665 ft 274 kts 261°
2026-05-04 22:02 33.84090 -117.25795 10385 ft 271 kts 261°
2026-05-04 22:02 33.83607 -117.27974 10082 ft 268 kts 243°
2026-05-04 22:02 33.82527 -117.29747 9840 ft 261 kts 224°
2026-05-04 22:03 33.81032 -117.30945 9641 ft 260 kts 210°
2026-05-04 22:03 33.79408 -117.31927 9425 ft 263 kts 207°
2026-05-04 22:03 33.77737 -117.32883 9212 ft 269 kts 207°
2026-05-04 22:03 33.76042 -117.33879 8984 ft 273 kts 208°
2026-05-04 22:04 33.74353 -117.34875 8753 ft 267 kts 208°
2026-05-04 22:04 33.72694 -117.35861 8532 ft 265 kts 207°
2026-05-04 22:04 33.71025 -117.36810 8316 ft 264 kts 207°
2026-05-04 22:04 33.69378 -117.37795 8095 ft 265 kts 207°
2026-05-04 22:05 33.67732 -117.38761 7896 ft 262 kts 210°
2026-05-04 22:05 33.66096 -117.39740 7664 ft 263 kts 207°
2026-05-04 22:05 33.64454 -117.40726 7459 ft 265 kts 208°
2026-05-04 22:05 33.62802 -117.41723 7227 ft 267 kts 208°
2026-05-04 22:06 33.61155 -117.42704 6995 ft 261 kts 208°
2026-05-04 22:06 33.59535 -117.43666 6796 ft 261 kts 209°
2026-05-04 22:06 33.58215 -117.45075 6563 ft 255 kts 240°
2026-05-04 22:06 33.57574 -117.47024 6391 ft 253 kts 258°
2026-05-04 22:07 33.57461 -117.49116 6190 ft 248 kts 269°
2026-05-04 22:07 33.57589 -117.51178 5905 ft 250 kts 281°
2026-05-04 22:07 33.58052 -117.53202 5671 ft 252 kts 287°
2026-05-04 22:07 33.58557 -117.55190 5699 ft 246 kts 285°
2026-05-04 22:08 33.59058 -117.57178 5724 ft 252 kts 286°
2026-05-04 22:08 33.59566 -117.59193 5734 ft 253 kts 285°
2026-05-04 22:08 33.60059 -117.61228 5734 ft 255 kts 285°
2026-05-04 22:08 33.60549 -117.63278 5736 ft 253 kts 285°
2026-05-04 22:09 33.61036 -117.65308 5744 ft 254 kts 285°
2026-05-04 22:09 33.61521 -117.67324 5727 ft 251 kts 285°
2026-05-04 22:09 33.61983 -117.69329 5735 ft 249 kts 285°
2026-05-04 22:09 33.62467 -117.71328 5741 ft 250 kts 285°
2026-05-04 22:10 33.62935 -117.73348 5724 ft 250 kts 285°
2026-05-04 22:10 33.63394 -117.75338 5440 ft 245 kts 283°
2026-05-04 22:10 33.63850 -117.77323 4900 ft 249 kts 285°
2026-05-04 22:10 33.64324 -117.79321 4501 ft 248 kts 285°
2026-05-04 22:11 33.64795 -117.81305 4117 ft 245 kts 285°
2026-05-04 22:11 33.65261 -117.83283 4057 ft 247 kts 284°
2026-05-04 22:11 33.65726 -117.85271 4010 ft 247 kts 285°
2026-05-04 22:11 33.66186 -117.87246 4008 ft 246 kts 285°
2026-05-04 22:12 33.66643 -117.89216 4003 ft 244 kts 284°
2026-05-04 22:12 33.67084 -117.91115 4005 ft 227 kts 284°
2026-05-04 22:12 33.67485 -117.92889 4002 ft 214 kts 281°
2026-05-04 22:12 33.67519 -117.94611 4012 ft 198 kts 266°
2026-05-04 22:13 33.67434 -117.96201 3997 ft 185 kts 267°
2026-05-04 22:13 33.67746 -117.97656 3750 ft 184 kts 306°
2026-05-04 22:13 33.68569 -117.98825 3519 ft 183 kts 306°
2026-05-04 22:13 33.69388 -117.99995 3274 ft 183 kts 309°
2026-05-04 22:14 33.70256 -118.01111 3036 ft 183 kts 311°
2026-05-04 22:14 33.71140 -118.02198 2791 ft 182 kts 312°
2026-05-04 22:14 33.72027 -118.03278 2549 ft 182 kts 311°
2026-05-04 22:14 33.72913 -118.04356 2313 ft 178 kts 311°
2026-05-04 22:15 33.73745 -118.05369 2082 ft 163 kts 310°
2026-05-04 22:15 33.74490 -118.06272 1903 ft 140 kts 310°
2026-05-04 22:15 33.75140 -118.07062 1688 ft 125 kts 308°
2026-05-04 22:15 33.75730 -118.07783 1540 ft 121 kts 308°
2026-05-04 22:16 33.76323 -118.08507 1360 ft 124 kts 308°
2026-05-04 22:16 33.76724 -118.08996 1271 ft 124 kts 308°
2026-05-04 22:16 33.77335 -118.09738 1087 ft 124 kts 308°
2026-05-04 22:16 33.77930 -118.10456 924 ft 120 kts 308°
2026-05-04 22:17 33.78518 -118.11173 773 ft 121 kts 309°
2026-05-04 22:17 33.79092 -118.11870 624 ft 121 kts 309°
2026-05-04 22:17 33.79584 -118.12470 489 ft 123 kts 309°
2026-05-04 22:17 33.80156 -118.13167 332 ft 122 kts 309°
2026-05-04 22:18 33.80752 -118.13891 169 ft 121 kts 310°
2026-05-04 22:18 33.81333 -118.14598 44 ft 114 kts 314°
2026-05-04 22:18 33.81781 -118.15136 42 ft 62 kts 314°
2026-05-04 22:18 33.81953 -118.15348 39 ft 23 kts 314°
2026-05-04 22:19 33.82071 -118.15489 40 ft 16 kts 315°
2026-05-04 22:19 33.82157 -118.15504 41 ft 11 kts 57°
2026-05-04 22:19 33.82163 -118.15407 39 ft 12 kts 89°
2026-05-04 22:19 33.82164 -118.15302 42 ft 13 kts 89°
2026-05-04 22:20 33.82164 -118.15173 42 ft 18 kts 90°
2026-05-04 22:20 33.82163 -118.15019 42 ft 19 kts 91°
2026-05-04 22:20 33.82162 -118.14875 40 ft 16 kts 90°
2026-05-04 22:20 33.82162 -118.14777 39 ft 11 kts 90°
2026-05-04 22:21 33.82133 -118.14704 42 ft 11 kts 158°
2026-05-04 22:21 33.82057 -118.14700 40 ft 12 kts 181°
2026-05-04 22:21 33.81973 -118.14700 40 ft 13 kts 179°
2026-05-04 22:21 33.81884 -118.14698 42 ft 5 kts 165°
2026-05-04 22:22 33.81884 -118.14665 42 ft 5 kts 38°
2026-05-04 22:22 33.81899 -118.14629 42 ft 6 kts 84°
2026-05-04 22:22 33.81899 -118.14609 42 ft 3 kts 89°
2026-05-04 22:22 33.81899 -118.14601 42 ft 0 kts 89°